Regional Weather Roundup
Issued by NWS Newport/Morehead, NC

Home | Current Version | Previous Version | Text Only | Print | Product List | Glossary On
Versions: 1 2 3 4 5 6 7 8 9 10 11 12 13 14 15 16 17 18 19 20 21 22 23 24 25 26 27 28 29 30 31 32 33 34 35 36 37 38 39 40 41 42 43 44 45 46 47 48 49 50
000
ASUS42 KMHX 011510
RWRMHX
WEATHER ROUNDUP FOR EASTERN NORTH CAROLINA
NATIONAL WEATHER SERVICE NEWPORT/MOREHEAD CITY NC
1100 AM EDT FRI AUG 01 2014

NOTE: "FAIR" INDICATES FEW OR NO CLOUDS BELOW 12,000 FEET
WITH NO SIGNIFICANT WEATHER AND/OR OBSTRUCTIONS TO VISIBILITY

NCZ015>017-031-032-045>047-102-103-011600-
NORTH COAST

CITY           SKY/WX    TMP DP  RH WIND       PRES   REMARKS
EDENTON        LGT RAIN  73  71  93 N5        30.15R
ELIZABETH CITY CLOUDY    76  69  79 NE10      30.15S
KITTY HAWK     DRIZZLE   77  69  77 E8        30.13S
MANTEO         NOT AVBL

$$

NCZ045>047-081-094-103-104-011600-
CENTRAL COAST

CITY           SKY/WX    TMP DP  RH WIND       PRES   REMARKS
FRISCO         LGT RAIN  79  76  90 E9        30.10S
SWANQUARTER      N/A     75 N/A N/A NE6G12    30.06F

$$

NCZ095-097-098-100-101-011600-
SOUTHERN COAST

CITY           SKY/WX    TMP DP  RH WIND       PRES   REMARKS
BEAUFORT       RAIN      77  72  84 SE12      30.11R
CEDAR ISLAND     N/A     79 N/A N/A E14       30.12S
JACKSONVILLE   LGT RAIN  74  72  93 E10       30.09S
NEWPORT        NOT AVBL
PINEY ISLAND   HVY RAIN  79  79 100 SE8       30.10R FOG
WILMINGTON     RAIN      74  73  97 VRB5      30.08R FOG


$$

NCZ011>013-027>030-043-044-078>080-089-090>093-098-011600-
COASTAL PLAIN

CITY           SKY/WX    TMP DP  RH WIND       PRES   REMARKS
AHOSKIE        CLOUDY    71  68  90 NE3       30.16S
CLINTON        RAIN      72  72  99 NE5       30.09S
ELIZABETHTOWN  CLOUDY    74  74  99 E6        30.08R
GOLDSBORO      LGT RAIN  68  68 100 NE14      30.11R FOG
GREENVILLE     RAIN      72  70  94 NE6       30.13S
HAVELOCK       RAIN      76  74  93 CALM      30.11R FOG
KENANSVILLE    DRIZZLE   72  70  95 NE3       30.11S
KINSTON        HVY RAIN  72  72 100 N5        30.13R VSB 1
NEW BERN       LGT RAIN  77  73  88 NE6       30.11S
RICHLANDS      CLOUDY    73  70  88 E8        30.10R
ROANOKE RAPIDS NOT AVBL
ROCKY MOUNT    LGT RAIN  73  68  84 E5        30.14R
WASHINGTON     CLOUDY    71  70  96 NE6       30.12R
WHITEVILLE     DRIZZLE   74  72  93 NE8       30.06S

$$

AMZ130-135-150-152-154-156-158-170-250-252-270-ANZ085-086-088-633-658-670-011600-
MARINE OBSERVATIONS

STATION/POSITION TIME  TEMP    WIND        PRES    WAVE   SWELL
                       AIR SEA DIR/SP/G            HT/PER HT/PER
                 (UTC) (F)     (DEG/KT/KT) (MB)    (FT/S) (FT/S)
CHESAPEAKE LIGHT NOT AVBL
BUOY 44014       1500   77 78   70/ 12/ 14 1021.2    3/ 7   2/ 7
DUCK             1500   77 76   70/ 16/ 18 1020.1
2E DUCK          1500                        N/A     3/ 6
OREGON INLET     1500   77 78   50/ 14/ 19 1019.8
BUOY 44095       1500      78                N/A     4/ 5
20E OREGON INLET NOT AVBL
HATTERAS CG      1500   79 79  100/  7/ 12 1019.7
DIAMOND BUOY     1500          VRB 14/ 17  1019.1    4/ 5   2/ 7
CAPE LOOKOUT     1400   80     130/ 11/ 12 1018.3
BEAUFORT LAB     1500   78 80  160/  6/ 16 1018.6
30 SE NEW RIVER  1500   78 81  150/ 16/ 19 1018.0    4/ 6   2/ 9
5 SE WRIGHTSVILL 1400   74 81  100/ 12/ 14   N/A
BUOY 41002       1410   81 81  170/ 14/ 16 1019.9    4/ 7   3/ 7
BUOY 41004       1500   73 82  160/ 10/ 14 1017.2    4/ 5   3/ 5

$$


USA.gov is the U.S. government's official web portal to all federal, state and local government web resources and services.